Weather observations for the past three days for
Fort Pierce, St. Lucie County International Airport
Metric (Imperial)
Date Time (edt) Wind (kph) Vis. (km) Weather Sky Cond. Temperature (ºC) Relative Humidity Wind Chill (°C) Heat Index (°C) Pressure Precipitation (cm)
Air Dwpt 6 hour altimeter (cm) sea level (mb) 1 hr 3 hr 6 hr
Max. Min.
09 20:53 SE 11 16.09 Mostly Cloudy FEW085 BKN120 28.3 23.9 77% 32 75.95 1012.3
09 19:53 SE 17 16.09 Fair CLR 28.3 23.3 33.3 28.3 74% 32 75.9 1011.6
09 18:53 SE 20 16.09 Fair CLR 29.4 23.3 70% 34 75.87 1011.3
09 17:53 SE 24 16.09 Fair CLR 31.1 23.3 63% 36 75.87 1011.2
09 16:53 SE 20 16.09 Partly Cloudy SCT070 SCT085 31.1 23.9 66% 37 75.87 1011.4
09 15:53 SE 22 16.09 Mostly Cloudy BKN070 31.1 22.8 61% 35 75.9 1011.8
09 14:53 SE 26 16.09 Mostly Cloudy BKN060 BKN075 31.7 22.8 59% 36 75.92 1012.1
09 13:53 E 19 16.09 Mostly Cloudy SCT050 BKN060 31.1 23.3 33.3 24.4 63% 36 75.97 1012.7
09 12:53 SW 17 16.09 Fair CLR 33.3 19.4 44% 35 76 1013.3
09 11:53 S 13 16.09 Fair CLR 31.7 20 50% 34 76.07 1014.2
09 10:53 S 15 16.09 Fair CLR 31.1 20.6 54% 34 76.1 1014.4
09 09:53 SW 17 16.09 Fair CLR 29.4 20 57% 31 76.1 1014.5
09 08:53 SW 7 16.09 Fair CLR 27.2 22.8 77% 30 76.07 1014.1
09 07:53 SW 9 12.87 Fair CLR 24.4 23.9 24.4 21.1 97% 24 76.05 1013.7
09 06:53 SW 6 8.05 Fog/Mist CLR 23.3 22.8 97% 76.02 1013.3
09 05:53 SE 7 4.83 Fog/Mist CLR 21.7 21.1 96% 76 1013.0
09 04:53 Calm 6.44 Fog/Mist BKN050 BKN060 22.2 21.7 97% 76 1013.3
09 03:53 S 6 11.27 Fair CLR 23.3 22.2 94% 76 1013.1
09 02:53 Calm 12.87 Fair CLR 23.3 22.2 94% 76.02 1013.4
09 01:53 SW 9 12.87 A Few Clouds FEW013 23.3 22.2 26.7 23.3 94% 76.05 1013.8
09 00:53 SW 9 16.09 Fair CLR 24.4 22.2 88% 25 76.07 1014.2
08 23:53 SE 13 16.09 Fair CLR 25.6 22.8 85% 27 76.07 1014.1
08 22:53 SE 11 16.09 Fair CLR 25.6 22.8 85% 27 76.07 1014.2
08 21:53 SE 15 16.09 Fair CLR 25.6 22.8 85% 27 76.05 1013.8
08 20:53 SE 15 16.09 Fair CLR 26.1 22.8 82% 28 76.02 1013.6
08 19:53 SE 15 16.09 Fair CLR 26.7 22.8 29.4 26.7 79% 29 75.97 1012.8
08 18:53 E 19 16.09 Fair CLR 27.2 22.2 74% 30 75.95 1012.3
08 17:53 E 20 16.09 Fair CLR 28.3 22.2 70% 31 75.95 1012.3
08 16:53 E 20 16.09 Fair CLR 28.9 22.2 67% 32 75.97 1012.8
08 15:53 E 22 16.09 Fair CLR 28.9 22.8 70% 32 76.02 1013.4
08 14:53 NE 22 G 33 16.09 Fair CLR 28.9 21.7 65% 32 76.07 1014.3
08 13:53 E 20 14.48 Fair CLR 28.3 22.2 30 21.1 70% 31 76.12 1014.6
08 12:53 NE 11 16.09 Partly Cloudy SCT041 29.4 21.7 63% 32 76.15 1015.2
08 11:53 E 11 16.09 Partly Cloudy SCT028 28.3 21.7 67% 31 76.2 1015.8
08 10:53 Calm 16.09 Partly Cloudy SCT028 28.9 21.1 63% 31 76.23 1016.2
08 09:53 N 11 16.09 Partly Cloudy SCT022 27.2 21.1 69% 29 76.23 1016.1
08 08:53 NW 6 16.09 Partly Cloudy SCT022 25 20.6 77% 26 76.23 1016.0
08 07:53 W 6 16.09 Mostly Cloudy BKN017 20.6 18.3 20.6 16.7 87% 76.17 1015.5
08 06:53 W 6 16.09 Fair CLR 17.2 16.1 93% 76.1 1014.6
08 05:53 Calm 16.09 Fair CLR 17.2 15.6 90% 76.05 1013.8
08 04:53 Calm 16.09 Fair CLR 17.8 16.1 90% 76.05 1013.8
08 03:53 NW 6 16.09 Fair CLR 18.9 16.1 84% 76.05 1013.8
08 02:53 Calm 16.09 Fair CLR 20 16.7 81% 76.05 1013.9
08 01:53 Calm 16.09 Fair CLR 20 17.2 27.8 20 84% 76.1 1014.4
08 00:53 W 6 16.09 Fair CLR 22.2 18.9 82% 76.1 1014.5
07 23:53 SW 13 16.09 Fair CLR 24.4 20 77% 25 76.1 1014.4
07 22:53 S 9 16.09 Fair CLR 25.6 20 71% 27 76.07 1014.1
07 21:53 S 13 16.09 Fair CLR 26.1 21.1 74% 28 76.05 1013.7
07 20:53 SE 13 16.09 Fair CLR 26.7 21.7 74% 29 76.02 1013.4
07 19:53 SE 19 16.09 Fair CLR 27.2 22.2 33.9 27.2 74% 30 76.02 1013.4
07 18:53 SE 22 16.09 Fair CLR 28.3 21.7 67% 31 76 1013.1
07 17:53 SE 22 16.09 Fair CLR 30 22.2 63% 33 75.97 1012.9
07 16:53 SE 19 16.09 Fair CLR 32.2 21.1 52% 35 76 1013.0
07 15:53 SW 11 16.09 Fair CLR 33.3 15 33% 33 76.02 1013.5
07 14:53 SW 17 16.09 Fair CLR 33.3 17.2 38% 34 76.1 1014.5
07 13:53 SW 19 G 28 16.09 Fair CLR 32.8 18.3 33.3 21.1 42% 34 76.15 1015.3
07 12:53 SW 9 16.09 Partly Cloudy SCT044 31.1 20.6 54% 34 76.17 1015.4
07 11:53 SW 15 16.09 Fair CLR 30.6 20 53% 33 76.23 1016.1
07 10:53 W 9 16.09 Fair CLR 28.9 20 59% 31 76.25 1016.6
07 09:53 SW 11 16.09 Fair CLR 27.8 18.9 58% 29 76.28 1016.8
07 08:53 SW 9 16.09 Fair CLR 25.6 20.6 74% 27 76.28 1016.7
07 07:53 Calm 16.09 Fair CLR 21.1 20 21.1 16.7 93% 76.25 1016.6
07 06:53 Calm 8.05 Fog/Mist CLR 17.8 17.8 100% 76.23 1016.3
07 05:53 Calm 16.09 Fair CLR 17.2 17.2 100% 76.17 1015.4
07 04:53 Calm 16.09 Fair CLR 17.8 17.2 96% 76.12 1014.7
07 03:53 Calm 16.09 Fair CLR 18.3 17.2 93% 76.12 1014.8
07 02:53 NW 6 16.09 Fair CLR 19.4 18.3 93% 76.17 1015.6
07 01:53 SW 6 16.09 Fair CLR 21.1 18.9 25.6 21.1 87% 76.2 1015.9
07 00:53 SE 11 16.09 Fair CLR 24.4 18.9 72% 25 76.23 1016.2
06 23:53 SE 13 16.09 Fair CLR 23.9 19.4 76% 24 76.23 1016.3
06 22:53 E 13 16.09 Fair CLR 24.4 20 77% 25 76.25 1016.4
06 21:53 E 13 16.09 Fair CLR 25 18.9 69% 26 76.25 1016.4
Date Time (edt) Wind (kph) Vis. (km) Weather Sky Cond. Air Dwpt Max. Min. Relative Humidity Wind Chill (°C) Heat Index (°C) altimeter (cm) sea level (mb) 1 hr 3 hr 6 hr
6 hour
Temperature (ºC) Pressure Precipitation (cm)